sat.trackr.live / text

‹ back to catalog

STARLINK-2033

NORAD 47650 · 2021-012AG

PAYLOAD ACTIVE UNKNOWN

§ Identity

Operator
Country
US
Launch date
2021-02-16
Launch site
AFETR
Launch vehicle
Mass (kg)
RCS (m²)

Purposes: comms

External: N2YO · Heavens-Above · Gunter

§ Orbital elements

Epoch: 2026-09-20T03:20:11.514624Z

Period
92.21 min
Inclination
53.1565°
Eccentricity
0.0007152
Mean motion
15.61577603 rev/d
Perigee alt
378.3 km
Apogee alt
387.9 km
Semi-major
6,761.2 km
B*
9.9437e-4
RAAN
206.4826°
Arg perigee
80.1447°
Mean anomaly
280.0375°
Rev number
31,033

§ Raw data

STARLINK-20331 47650U 21012AG  26263.13902216  .00087475  00000+0  99437-3 0  99962 47650  53.1565 206.4826 0007152  80.1447 280.0375 15.61577603310332

JSON: /api/v1/satellites/47650 · /tle

For live sub-satellite position, see the globe view (requires WebGL).

§ Visibility from observer

Set your observer location to see the next 7 days of passes ≥ 10°. The values pass through the URL so the page stays shareable.

No JS? Fill the form by hand. The geolocation button needs JavaScript.